User: anonymous   Login
Location: Darlington Observatory
(36.4817°N, 105.8156°W)
Time: 06:18:25
(UTC-07:00)
Language:

Cosmos 2278 Rocket - Orbit

View from above orbital plane
View from above orbital plane
View from above satellite
View from above satellite

Ground track
Ground track

The orbit data is extracted from the following two-line orbital elements,

1 23088U 94023B   14326.52133251 -.00000167  00000-0 -62164-4 0   762
2 23088 071.0015 090.0182 0001083 038.4786 034.4860 14.14599195 62949
Epoch (UTC): 22 November 2014 12:30:43
Eccentricity: 0.0001083
inclination: 71.0015°
perigee height: 843 km
apogee height: 844 km
right ascension of ascending node: 90.0182°
argument of perigee: 38.4786°
revolutions per day: 14.14599195
mean anomaly at epoch: 34.4860°
orbit number at epoch: 6294

The dashed part of the orbit path shows where the satellite is in the earth's shadow,  

DLR